Olympia, WA
on Thursday, January 10, 2013

Thursday
Previous Day Next Day
Daily Summary
 ActualAverageRecord
Temperature
Mean Temperature °F 40°F  
Max Temperature 38°F 45°F 57°F (1961)
Min Temperature 33°F 34°F 8°F (1949)
Degree Days
Heating Degree Days 29 26  
Month to date heating degree days 259 260  
Since 1 July heating degree days 2422 2530  
Cooling Degree Days 0 0  
Month to date cooling degree days 0 0  
Year to date cooling degree days 0 0  
Moisture
Dew Point 33°F   
Average Humidity 93    
Maximum Humidity 100    
Minimum Humidity 85    
Precipitation
Precipitation 0.01 in 0.26 in 1.56 in (2006)
Month to date precipitation 2.76 2.57  
Year to date precipitation 2.76 2.57  
Wind
Wind Speed 3 mph   
Max Wind Speed 13 mph   
Max Gust Speed 16 mph   
Visibility 5 miles   
Events     

Key: T is trace of precipitation, MM is missing value
Source: NWS Daily Summary
Time(PST)TemperatureDew PointHumidity Pressure Visibility Wind DirectionWind SpeedGust SpeedPrecipitationEvents Conditions
12:30 AM 33.1°F 33.1°F 100% 29.96 in 7.0 miles SW 6.9 mph - N/A   Partly Cloudy
12:54 AM 34.0°F 33.1°F 96% 29.96 in 6.0 miles WSW 9.2 mph - N/A   Mostly Cloudy
1:20 AM 33.1°F 33.1°F 100% 29.96 in 4.0 miles SW 6.9 mph - N/A   Overcast
1:45 AM 33.1°F 33.1°F 100% 29.97 in 2.0 miles SSW 8.1 mph - N/A   Overcast
1:54 AM 33.1°F 32.0°F 96% 29.98 in 1.5 miles SW 8.1 mph - N/A   Overcast
2:02 AM 33.1°F 32.0°F 96% 29.97 in 1.2 miles SW 9.2 mph - N/A   Overcast
2:27 AM 33.8°F 32.0°F 93% 29.97 in 1.8 miles SSW 8.1 mph - N/A   Overcast
2:36 AM 33.1°F 33.1°F 100% 29.97 in 2.0 miles SSW 10.4 mph - N/A   Overcast
2:52 AM 33.8°F 33.8°F 100% 29.98 in 1.5 miles SSW 9.2 mph - N/A   Overcast
2:54 AM 33.1°F 33.1°F 100% 29.99 in 1.5 miles SSW 9.2 mph - N/A   Overcast
3:40 AM 33.1°F 33.1°F 100% 29.99 in 1.2 miles SW 4.6 mph - N/A   Overcast
3:54 AM 33.1°F 33.1°F 100% 29.99 in 1.5 miles SSW 8.1 mph - N/A   Overcast
4:11 AM 33.1°F 33.1°F 100% 29.98 in 2.5 miles Calm Calm - N/A   Overcast
4:35 AM 33.1°F 32.0°F 96% 29.99 in 1.2 miles South 4.6 mph - N/A   Overcast
4:50 AM 33.8°F 33.8°F 100% 29.99 in 1.5 miles South 5.8 mph - N/A   Overcast
4:54 AM 33.1°F 33.1°F 100% 30.01 in 1.8 miles South 4.6 mph - N/A   Overcast
5:07 AM 33.1°F 33.1°F 100% 30.00 in 2.5 miles South 6.9 mph - N/A   Overcast
5:16 AM 33.1°F 33.1°F 100% 30.00 in 3.0 miles SW 3.5 mph - N/A   Overcast
5:54 AM 33.1°F 33.1°F 100% 30.02 in 5.0 miles SSW 3.5 mph - N/A   Overcast
6:30 AM 33.1°F 33.1°F 100% 30.03 in 5.0 miles WNW 3.5 mph - N/A   Overcast
6:54 AM 33.1°F 33.1°F 100% 30.04 in 4.0 miles West 3.5 mph - N/A   Overcast
7:36 AM 34.0°F 33.1°F 96% 30.05 in 5.0 miles Calm Calm - N/A   Overcast
7:54 AM 34.0°F 33.1°F 96% 30.07 in 4.0 miles Calm Calm - N/A   Overcast
8:54 AM 34.0°F 33.1°F 96% 30.09 in 3.0 miles WSW 3.5 mph - 0.00 in   Overcast
9:54 AM 35.1°F 33.1°F 92% 30.09 in 6.0 miles South 3.5 mph - N/A   Overcast
10:54 AM 34.0°F 33.1°F 96% 30.09 in 6.0 miles SW 3.5 mph - N/A   Overcast
11:54 AM 35.1°F 34.0°F 96% 30.09 in 5.0 miles ENE 3.5 mph - N/A   Overcast
12:54 PM 36.0°F 33.1°F 89% 30.08 in 7.0 miles Calm Calm - N/A   Overcast
1:54 PM 37.0°F 34.0°F 89% 30.09 in 9.0 miles Calm Calm - N/A   Overcast
2:54 PM 37.0°F 34.0°F 89% 30.09 in 9.0 miles Calm Calm - N/A   Overcast
3:54 PM 37.0°F 34.0°F 89% 30.10 in 8.0 miles WSW 3.5 mph - N/A   Overcast
4:54 PM 37.0°F 35.1°F 93% 30.10 in 10.0 miles Calm Calm - N/A   Overcast
5:33 PM 37.0°F 35.1°F 93% 30.09 in 10.0 miles NNW 4.6 mph - N/A   Overcast
5:54 PM 37.0°F 35.1°F 93% 30.10 in 8.0 miles Calm Calm - 0.00 in   Overcast
6:54 PM 36.0°F 34.0°F 93% 30.11 in 9.0 miles NE 3.5 mph - N/A   Overcast
7:37 PM 35.1°F 33.1°F 92% 30.10 in 10.0 miles Calm Calm - 0.01 in   Overcast
7:54 PM 34.0°F 33.1°F 96% 30.11 in 10.0 miles Calm Calm - 0.01 in   Overcast
8:54 PM 33.8°F 33.8°F 100% 30.10 in 8.0 miles Calm Calm - N/A   Overcast
9:24 PM 33.1°F 32.0°F 96% 30.11 in 6.0 miles Calm Calm - N/A   Overcast
9:39 PM 33.1°F 32.0°F 96% 30.11 in 6.0 miles Calm Calm - N/A   Overcast
9:54 PM 33.1°F 32.0°F 96% 30.12 in 8.0 miles WNW 3.5 mph - N/A   Overcast
10:54 PM 33.1°F 32.0°F 96% 30.12 in 4.0 miles WSW 3.5 mph - 0.00 in   Overcast
11:54 PM 33.1°F 33.1°F 100% 30.13 in 3.0 miles Calm Calm - N/A   Overcast
Moon Phase
Jan. 10 Jan. 11 Jan. 18 Jan. 26 Feb. 03
Sunrise:07:55 AM (PST) Moon Rise:06:39 AM (PST)1/10
Sunset:04:43 PM (PST) Moon Set:03:58 PM (PST)1/10

Copyright © 2014 The Weather Underground, Inc.